Location: Eaton Estates
(41.3089°N, 82.0057°W)
Time: 13:05:30
(UTC+00:00)

Cosmos 1703 - Pass Details

Date: 17 June 2021
Orbit: 522 x 539 km, 82.5° (Epoch: 26 July)

Event Time Altitude Azimuth Distance (km) Brightness Sun altitude
Exits shadow 05:11:32 58° 348° (NNW) 629 3.8 -25.2°
Drops below altitude 10° 05:14:48 10° 5° (N) 1,802 7.0 -25.2°
Sets 05:16:58 0° 7° (N) 2,701 8.2 -25.2°
